RH
95 96 95 90 90 86 87 63 44 45 45 59 63 63 57 62 63 78 73 66 66 72 71 68 68 80 98 100 90 80 82 71 75 99 76 89 97 77 75 66 59 58 53 49 44 46 49
94 95 98 83 86 82 93 90 52 44 43 54 61 67 70 72 69 72 66 66 65 64 71 74 69 81 94 97 80 70 71 74 85 97 88 75 84 69 69 62 60 56 50 47 48 47 48
97 97 99 96 82 72 88 88 55 41 40 55 59 76 84 85 92 87 68 62 61 62 70 75 75 77 98 91 66 59 58 62 70 93 95 72 80 65 58 63 56 54 60 55 52 46 44
98 95 96 99 85 93 72 85 82 42 40 50 70 86 81 84 93 96 91 80 82 59 63 78 86 92 94 89 71 62 65 64 62 63 80 80 89 73 58 55 56 60 53 71 54 39 37
97 96 95 97 96 82 81 69 92 68 42 42 49 66 62 63 72 91 99 90 76 82 78 77 89 91 93 74 64 56 62 78 69 63 74 77 91 81 62 62 61 59 81 68 60 44 44
95 96 95 95 95 95 75 62 79 65 42 46 51 80 75 82 91 87 98 100 85 98 96 84 91 92 83 90 77 70 58 66 86 89 99 90 100 87 75 76 91 70 66 55 55 42 42
98 96 96 96 94 96 78 68 58 58 42 46 50 72 73 84 97 99 99 100 99 100 98 79 84 71 81 76 80 71 63 65 89 97 86 89 89 95 76 71 61 55 53 52 56 40 39
94 95 95 95 94 95 94 64 48 38 40 43 45 51 72 72 94 100 99 100 87 79 89 78 80 88 76 84 91 78 65 71 92 87 72 81 92 74 71 72 61 59 59 59 51 42 40
92 92 93 92 89 89 94 95 64 42 39 44 46 55 72 74 97 98 98 94 96 85 87 93 75 96 88 77 86 75 75 70 81 67 73 79 79 61 68 82 74 63 63 60 60 49 43
89 88 88 88 90 87 90 93 92 61 44 44 47 57 83 89 92 100 99 99 98 97 100 90 95 78 85 75 81 70 73 69 74 64 62 85 73 69 73 76 72 84 51 52 50 58 65
88 89 87 92 88 89 89 92 97 95 60 50 49 56 73 84 96 95 96 100 100 96 97 82 88 72 73 67 67 79 66 66 79 63 64 89 84 76 82 74 68 75 60 59 51 53 50
87 86 84 91 90 87 94 92 96 99 96 64 55 54 77 83 94 89 97 100 96 99 96 98 84 90 86 76 63 78 76 68 67 59 55 89 72 74 69 66 64 49 57 62 52 50 61
85 84 83 84 90 92 90 95 92 99 98 98 67 69 94 89 98 97 99 97 100 98 91 98 94 85 75 86 77 77 78 81 94 89 82 89 86 84 84 65 55 51 71 98 96 74 64
83 85 90 90 89 90 91 94 98 94 96 100 86 87 98 97 96 100 93 97 99 83 87 73 78 78 79 74 84 77 78 88 86 78 71 97 99 73 77 80 73 74 72 78 76 69 59
90 84 86 87 90 92 94 94 99 92 98 100 92 78 99 98 97 99 95 100 89 84 78 78 77 81 77 71 80 82 82 74 78 85 64 79 84 52 56 51 58 78 80 48 62 63 68
87 90 93 85 90 91 94 93 100 92 100 99 80 100 98 100 100 100 98 99 93 87 70 62 75 70 80 76 98 78 83 60 76 72 61 69 69 52 35 40 35 56 46 74 59 66 71
82 89 96 84 89 93 94 92 100 90 100 90 86 100 99 100 100 96 100 97 90 83 56 62 75 92 67 86 95 87 78 78 76 70 60 52 58 58 39 44 48 52 75 57 53 61 64
86 90 94 84 89 93 95 92 96 94 99 76 88 94 100 100 98 92 96 88 81 68 64 72 70 74 83 73 82 80 86 75 70 61 58 47 60 66 49 48 40 40 48 49 57 60 63
92 89 92 88 89 95 97 95 96 97 100 82 87 99 100 100 98 96 91 91 87 78 76 78 70 63 69 80 92 81 80 64 66 60 64 54 65 77 62 54 57 49 42 44 52 54 62
97 88 89 91 89 97 98 98 99 98 99 87 92 98 100 100 99 99 96 92 91 81 81 80 62 58 66 75 72 90 83 69 64 55 50 45 63 69 71 63 61 64 53 49 44 57 58
100 93 89 95 87 96 97 100 100 99 100 89 84 88 94 97 97 96 94 90 91 91 92 87 77 63 62 84 86 89 87 66 61 61 54 48 57 52 50 51 52 54 54 51 50 43 47
100 97 94 92 86 96 98 99 100 100 100 95 85 78 79 75 65 98 92 98 89 94 93 83 73 62 61 74 75 89 77 69 64 53 56 54 56 45 45 48 48 56 55 51 48 50 50
99 100 96 94 84 95 99 99 100 100 100 79 69 66 66 63 60 64 72 90 92 86 87 64 63 57 63 58 56 59 53 54 55 54 55 57 50 53 57 44 40 45 46 60 51 54 44
99 100 97 100 84 95 100 100 100 100 100 90 68 70 65 60 61 56 55 77 87 65 76 54 52 52 50 51 46 45 47 48 46 54 44 60 62 55 55 46 53 40 48 49 52 46 43
99 100 96 100 95 95 100 100 100 100 100 100 64 75 62 58 59 55 59 69 66 62 59 58 58 52 48 44 71 70 62 49 56 59 53 49 50 62 60 56 46 55 55 57 51 55 60
98 100 100 100 98 95 100 100 100 100 100 100 63 72 69 60 59 50 56 51 63 74 51 58 60 50 48 60 68 88 97 65 60 56 47 54 51 52 87 64 47 42 47 45 49 57 63
98 99 100 100 99 95 100 100 100 100 100 100 70 73 77 57 58 49 55 54 49 56 62 54 52 54 55 64 66 77 66 54 61 62 58 60 64 62 72 66 61 50 49 45 57 49 62
98 98 100 100 100 94 100 99 98 100 100 100 88 78 86 61 71 63 53 49 55 45 54 48 50 49 78 74 73 76 70 68 66 57 56 57 68 69 78 71 56 50 51 54 57 62 53
98 96 100 100 95 96 100 99 99 100 100 100 99 86 90 63 77 72 64 58 56 53 40 55 57 58 51 79 84 88 80 78 73 68 67 55 50 61 61 62 66 60 55 54 53 49 52
Wind_Speed
15 17 19 17 16 15 15 13 11 10 9 10 10 9 8 10 11 11 10 10 13 14 14 13 14 16 16 17 21 9 4 2 17 24 28 29 19 17 11 14 8 5 4 9 16 13 14
15 17 18 14 17 14 14 16 14 11 10 10 9 7 9 12 12 12 12 11 11 12 12 14 12 15 19 15 15 22 17 4 4 21 29 34 18 25 14 10 17 11 17 20 13 17 12
14 16 18 16 14 13 14 15 14 13 12 11 10 9 11 11 14 14 14 13 12 10 13 13 12 14 17 20 9 8 24 28 10 17 31 37 21 19 13 7 13 9 4 4 6 6 8
15 16 16 18 16 14 13 15 15 13 13 12 13 12 14 14 14 14 15 16 14 12 12 13 12 14 11 8 20 21 7 17 23 14 29 33 29 19 9 9 6 9 3 9 2 2 4
15 15 16 17 18 17 15 13 17 16 15 12 13 16 15 18 20 17 15 15 15 14 12 12 12 12 7 8 25 22 25 7 10 13 22 30 17 15 11 7 4 2 5 6 6 7 5
16 16 15 17 18 18 16 15 15 17 15 13 13 13 15 18 18 19 16 15 14 14 12 9 10 5 13 11 17 13 18 15 9 12 14 18 11 8 8 9 11 7 7 3 5 2 2
15 13 15 16 17 18 17 16 15 15 14 14 13 13 16 18 20 19 18 12 11 7 21 13 11 10 5 11 8 8 15 20 11 16 10 22 11 15 17 12 5 7 7 11 2 2 1
14 13 15 13 14 17 17 15 15 13 14 14 13 13 15 19 16 13 19 29 24 6 5 29 15 20 11 8 6 8 17 17 10 7 11 11 14 12 9 8 7 5 5 5 3 1 3
16 14 16 14 14 15 16 16 15 12 13 13 12 13 16 17 13 16 19 27 21 15 2 6 36 15 11 21 5 10 22 20 9 11 18 17 7 15 12 7 9 4 6 4 4 3 1
18 16 15 16 15 15 16 16 16 12 12 12 12 14 13 13 10 10 14 26 25 15 0 6 11 13 16 10 6 17 26 22 7 15 17 11 6 16 14 12 9 9 4 2 2 4 2
19 16 16 17 15 16 17 16 15 14 12 14 13 13 13 8 6 9 5 22 18 13 3 8 9 2 16 15 8 15 26 23 9 11 10 6 14 18 16 15 9 4 5 3 0 3 1
21 19 17 18 17 16 17 16 15 14 15 15 15 14 13 12 13 11 7 14 17 4 5 8 9 10 14 8 7 20 21 18 9 8 15 3 7 9 8 8 9 9 7 5 3 3 3
22 19 18 18 18 17 18 17 16 15 17 17 16 15 15 12 9 12 16 23 3 4 2 7 5 10 11 7 3 10 16 17 6 10 18 3 3 4 6 9 3 4 6 2 1 4 4
21 19 20 18 18 20 18 18 15 16 17 17 16 16 15 12 14 24 26 2 7 5 5 2 6 12 7 9 8 11 16 14 10 2 11 5 5 8 6 6 6 5 6 4 5 4 2
23 20 21 18 20 20 17 18 16 17 16 16 17 17 16 16 20 30 16 3 3 3 7 9 11 12 5 11 6 9 11 12 10 6 7 12 3 2 9 4 9 4 5 4 4 2 1
24 22 21 18 20 19 17 17 14 15 14 15 17 7 7 13 34 31 3 4 5 9 11 13 5 5 9 13 2 9 12 12 12 15 6 4 5 4 4 7 4 6 6 3 1 4 3
25 23 21 18 20 19 17 15 14 13 13 13 6 3 4 21 35 10 3 5 6 12 16 9 5 6 7 7 5 6 16 6 10 18 5 6 4 1 6 5 9 4 3 1 3 2 3
23 23 22 19 19 18 15 14 14 11 10 7 3 2 7 32 6 4 3 5 8 16 13 6 6 5 9 9 8 9 10 6 20 15 8 7 5 4 3 1 3 5 8 11 4 3 1
24 22 21 19 19 18 15 13 12 9 8 5 3 4 13 26 4 8 5 9 8 7 6 6 5 4 7 10 8 5 9 14 24 17 9 6 2 6 4 2 4 5 4 4 4 3 6
23 21 21 19 19 18 14 13 11 9 7 6 4 3 6 19 8 3 3 3 5 3 1 1 3 6 9 10 2 8 7 5 18 23 18 5 3 5 8 5 6 5 4 4 6 4 5
21 22 21 20 18 18 15 13 11 10 9 8 6 5 7 5 7 10 3 9 5 5 4 3 4 7 10 5 4 6 4 3 4 17 3 2 3 3 1 2 6 8 10 12 10 11 10
15 23 22 19 19 17 15 13 12 12 12 11 4 4 5 2 3 7 6 4 14 3 5 6 8 14 7 7 6 10 9 5 8 2 3 3 3 2 2 2 4 4 6 11 10 3 8
26 16 21 20 19 16 15 14 14 14 14 9 7 9 3 2 2 4 5 5 7 8 4 2 12 9 5 5 6 12 9 14 9 7 4 4 5 3 2 2 4 3 9 10 7 5 10
29 13 21 21 20 18 16 13 15 16 17 15 7 6 3 3 3 4 5 4 6 5 5 3 5 5 4 28 30 24 25 19 15 7 4 5 5 1 3 2 1 4 1 5 6 3 5
23 15 21 22 20 17 16 13 16 16 17 16 13 9 4 3 1 2 6 6 4 6 4 3 7 15 20 3 5 6 3 5 4 5 4 5 7 2 4 4 4 1 4 6 7 5 6
25 21 21 20 19 16 16 15 16 16 16 15 12 13 7 2 4 4 4 4 4 3 3 3 9 15 7 4 4 4 4 5 5 3 1 4 4 4 1 5 6 1 2 7 4 4 8
22 22 17 21 20 19 16 15 16 16 16 14 10 11 7 4 4 6 3 6 9 6 4 4 5 2 3 2 3 2 3 1 5 9 6 3 3 5 4 2 5 4 3 7 4 3 11
28 22 16 20 20 19 17 16 16 16 16 14 10 11 10 2 4 4 4 6 8 8 5 9 6 1 3 2 1 2 3 4 4 3 5 6 6 4 3 2 7 7 4 7 4 13 19
28 27 10 18 22 20 17 17 17 17 16 13 10 10 9 3 3 8 9 8 7 7 13 13 4 5 9 4 2 3 2 2 4 4 1 2 4 4 6 4 0 3 1 11 26 26 17
Wind_Direction
302 304 310 303 307 302 303 302 292 292 292 297 307 298 289 288 280 268 260 252 242 245 249 240 228 225 215 212 230 185 18 290 223 209 211 205 202 191 188 189 168 194 216 233 250 262 277
294 298 304 302 297 290 286 291 290 283 278 287 285 299 291 285 274 265 258 254 249 240 240 233 225 219 216 229 258 245 247 312 227 212 208 205 211 200 199 179 191 197 208 241 258 272 279
288 295 303 315 301 299 279 282 292 285 274 270 270 274 281 289 275 273 267 258 247 238 236 236 226 226 226 232 244 261 234 242 236 216 216 203 199 201 190 161 205 183 181 269 232 263 261
285 291 296 307 313 303 296 284 293 292 275 267 269 266 274 280 280 276 267 257 246 236 230 229 229 220 237 228 241 245 251 240 240 240 223 206 213 222 194 157 110 176 149 249 249 166 265
281 283 289 297 303 309 300 285 286 291 280 272 269 265 274 282 281 266 272 253 237 233 232 227 222 223 251 245 236 244 229 232 217 231 218 212 222 211 191 130 145 181 197 210 280 229 223
274 278 282 288 298 304 299 294 273 280 279 273 267 266 275 280 284 255 263 242 226 213 204 201 212 201 242 224 229 232 221 210 193 202 193 203 219 193 188 165 198 162 197 165 194 190 162
276 283 282 285 293 298 303 291 281 281 278 272 270 266 270 285 289 257 252 213 166 192 195 186 196 200 189 207 223 238 205 185 222 185 189 201 196 200 189 180 167 158 170 215 236 252 232
273 278 285 295 297 296 305 302 290 286 279 274 273 267 268 293 279 250 248 196 201 190 181 222 222 223 222 146 188 205 187 175 202 182 196 192 204 184 163 162 133 142 153 206 274 210 203
269 275 282 290 298 299 300 306 301 293 285 278 271 266 273 293 271 249 250 216 203 174 69 225 218 215 222 218 229 198 189 189 196 168 194 201 186 168 168 169 171 169 161 164 210 314 215
270 271 276 284 292 295 299 300 305 300 288 282 270 265 276 294 261 242 245 210 184 159 197 211 188 234 211 175 221 209 198 182 193 185 197 234 228 165 167 181 171 206 188 103 92 33 268
266 268 269 277 285 292 297 299 299 307 297 285 276 266 268 272 226 263 223 205 159 145 247 145 164 166 187 176 134 196 197 203 179 149 195 213 183 176 176 183 163 190 162 165 215 203 30
263 266 266 273 283 289 290 294 295 300 306 291 281 268 258 254 244 232 271 220 152 178 240 182 157 165 158 184 201 161 181 202 208 147 201 235 175 155 183 157 158 151 79 54 38 47 275
260 264 268 269 275 282 288 291 292 295 299 300 285 271 254 237 254 206 170 137 162 234 121 157 173 158 159 164 191 163 183 202 182 147 198 197 146 97 116 132 62 130 119 49 60 212 228
260 262 266 269 279 281 284 286 288 294 292 296 287 272 262 238 221 161 151 178 223 152 175 208 134 146 171 143 209 175 169 205 226 258 160 197 162 152 153 188 152 161 146 167 189 191 235
261 262 270 271 280 282 281 280 287 292 291 295 287 282 261 229 195 162 141 207 249 164 165 159 132 160 201 180 160 167 184 197 193 228 157 187 186 149 169 147 142 200 167 137 111 56 81
263 261 266 272 281 283 278 274 283 288 291 294 294 272 226 182 180 164 120 240 237 213 184 149 129 169 185 178 167 157 181 190 193 234 241 170 104 175 120 111 43 154 144 149 299 186 222
260 264 267 273 283 282 275 270 279 281 287 295 269 223 201 169 166 159 223 238 247 191 151 162 122 147 177 160 225 162 177 165 192 212 212 155 106 97 123 203 165 143 128 183 169 134 164
248 265 265 271 282 281 272 265 274 272 282 288 234 220 170 174 172 192 197 208 243 174 179 191 132 158 158 151 177 194 195 223 182 189 175 212 127 129 173 43 174 148 159 199 148 201 96
236 254 261 267 278 282 273 261 265 253 262 262 219 138 173 177 222 226 182 221 228 170 209 168 136 156 150 153 175 179 188 214 186 199 179 187 132 114 112 41 12 188 149 182 121 84 178
236 244 260 262 275 283 271 257 254 237 235 241 199 157 156 205 250 272 191 214 194 166 178 116 133 114 144 174 135 174 184 190 171 201 216 149 127 153 184 164 136 173 158 176 162 172 174
243 239 254 258 272 285 269 257 242 225 221 231 217 229 179 197 231 228 229 180 214 174 255 260 174 178 171 139 119 142 177 118 114 166 117 141 139 122 2 176 147 169 178 183 195 202 205
293 237 245 253 267 282 268 254 235 217 213 231 233 207 191 254 247 174 180 192 204 185 195 198 197 176 189 153 187 182 150 151 158 149 129 358 186 134 100 151 158 183 198 194 211 177 248
307 242 236 245 261 276 265 252 227 213 214 220 236 255 240 217 187 191 192 177 200 157 203 277 147 150 174 171 172 156 144 132 144 133 125 148 122 137 193 173 134 288 207 188 204 198 205
283 276 231 240 255 273 266 247 214 214 217 224 240 254 194 249 176 228 132 115 180 211 140 13 82 108 114 115 101 90 80 70 128 56 73 132 91 317 145 154 188 242 41 189 159 189 183
291 304 223 232 252 268 264 241 213 213 217 229 235 233 242 261 181 158 125 119 134 84 72 59 37 121 147 87 83 72 27 77 51 38 37 88 171 150 149 192 285 271 198 156 172 228 188
284 318 217 236 253 270 263 237 213 213 217 225 227 230 255 201 237 142 130 161 133 92 68 45 84 142 70 45 85 127 176 165 175 104 68 87 79 114 61 159 202 238 184 175 140 275 178
307 305 213 234 241 269 261 227 212 213 213 219 223 226 230 242 179 158 159 164 134 101 93 128 141 62 41 76 54 143 142 154 151 161 168 96 33 148 192 210 287 232 161 154 117 253 136
289 299 215 233 239 265 256 223 209 207 212 214 222 224 211 234 166 160 148 151 142 147 144 161 118 162 62 81 106 203 143 199 112 156 172 157 153 176 108 121 263 156 124 167 155 126 139
297 285 250 229 239 258 248 217 202 200 212 208 214 212 200 204 141 124 120 140 159 156 143 163 139 159 169 113 171 119 143 161 144 188 9 196 181 178 173 210 215 143 56 139 144 140 143